Location: Kelshall
(52.0000°N, 0.0500°W)
Time: 12:47:27
(UTC+00:00)

CREW DRAGON DEMO-1 DEB - Pass Details

Date: 18 September 2020
Orbit: 362 x 364 km, 51.6° (Epoch: 24 October)

Event Time Altitude Azimuth Distance (km) Brightness Sun altitude
Rises 18:25:34 0° 256° (WSW) 2,194 8.2 -3.7°
Reaches altitude 10° 18:27:36 10° 254° (WSW) 1,349 6.9 -4.0°
Maximum altitude 18:30:36 73° 170° (S) 384 2.8 -4.4°
Drops below altitude 10° 18:33:37 10° 85° (E) 1,356 5.0 -4.9°
Enters shadow 18:34:21 - 84° (E) 1,662 5.4 -5.0°
